TimeCST,TemperatureF,Dew PointF,Humidity,Sea Level PressureIn,VisibilityMPH,Wind Direction,Wind SpeedMPH,Gust SpeedMPH,PrecipitationIn,Events,Conditions,WindDirDegrees,DateUTC
12:52 AM,30.0,26.1,85,30.37,10.0,Calm,Calm,-,N/A,,Clear,0,2012-11-16 06:52:00
1:52 AM,28.0,25.0,88,30.39,9.0,Calm,Calm,-,N/A,,Clear,0,2012-11-16 07:52:00
2:52 AM,28.0,25.0,88,30.39,9.0,West,4.6,-,N/A,,Clear,260,2012-11-16 08:52:00
3:52 AM,28.0,25.0,88,30.40,8.0,Calm,Calm,-,N/A,,Clear,0,2012-11-16 09:52:00
4:52 AM,27.0,24.1,89,30.41,8.0,Calm,Calm,-,N/A,,Clear,0,2012-11-16 10:52:00
5:52 AM,28.0,25.0,88,30.42,6.0,Calm,Calm,-,N/A,,Clear,0,2012-11-16 11:52:00
6:52 AM,26.1,24.1,92,30.44,5.0,Calm,Calm,-,N/A,,Clear,0,2012-11-16 12:52:00
7:52 AM,30.0,27.0,88,30.45,5.0,Calm,Calm,-,N/A,,Clear,0,2012-11-16 13:52:00
8:52 AM,36.0,33.1,89,30.46,5.0,Calm,Calm,-,N/A,,Clear,0,2012-11-16 14:52:00
9:52 AM,42.1,33.1,70,30.47,7.0,Calm,Calm,-,N/A,,Clear,0,2012-11-16 15:52:00
10:52 AM,46.0,33.1,61,30.46,9.0,Calm,Calm,-,N/A,,Clear,0,2012-11-16 16:52:00
11:52 AM,50.0,34.0,54,30.45,9.0,Calm,Calm,-,N/A,,Clear,0,2012-11-16 17:52:00
12:52 PM,53.1,34.0,48,30.44,9.0,Calm,Calm,-,N/A,,Clear,0,2012-11-16 18:52:00
1:52 PM,54.0,35.1,49,30.43,9.0,East,3.5,-,N/A,,Clear,80,2012-11-16 19:52:00
2:52 PM,54.0,35.1,49,30.43,9.0,Calm,Calm,-,N/A,,Clear,0,2012-11-16 20:52:00
3:52 PM,53.1,35.1,50,30.44,10.0,Calm,Calm,-,N/A,,Clear,0,2012-11-16 21:52:00
4:52 PM,44.1,35.1,71,30.44,9.0,Calm,Calm,-,N/A,,Clear,0,2012-11-16 22:52:00
5:52 PM,37.0,32.0,82,30.45,9.0,Calm,Calm,-,N/A,,Clear,0,2012-11-16 23:52:00
6:52 PM,36.0,30.9,82,30.45,9.0,Calm,Calm,-,N/A,,Clear,0,2012-11-17 00:52:00
7:52 PM,34.0,28.9,82,30.44,8.0,ESE,3.5,-,N/A,,Clear,110,2012-11-17 01:52:00
8:52 PM,34.0,28.9,82,30.43,7.0,East,3.5,-,N/A,,Clear,90,2012-11-17 02:52:00
9:52 PM,30.9,28.0,89,30.44,6.0,Calm,Calm,-,N/A,,Clear,0,2012-11-17 03:52:00
10:52 PM,28.9,27.0,92,30.45,6.0,Calm,Calm,-,N/A,,Clear,0,2012-11-17 04:52:00
11:52 PM,36.0,30.9,82,30.45,8.0,Calm,Calm,-,N/A,,Clear,0,2012-11-17 05:52:00